Weather observations for the past three days for
Omaha, Millard Airport
Metric (Imperial)
Date Time (cdt) Wind (kph) Vis. (km) Weather Sky Cond. Temperature (ºC) Relative Humidity Wind Chill (°C) Heat Index (°C) Pressure Precipitation (cm)
Air Dwpt 6 hour altimeter (cm) sea level (mb) 1 hr 3 hr 6 hr
Max. Min.
31 07:55 W 9 16.09 Fair CLR 0 0 0% 75.95 0.0
31 07:35 S 6 16.09 Fair CLR 0 0 0% 75.95 0.0
31 07:15 Calm 16.09 Fair CLR 0 0 0% 75.92 0.0
31 06:55 Calm 16.09 Fair CLR 0 0 0% 75.87 0.0
31 06:35 Calm 11.27 Fair CLR 0 0 0% 75.84 0.0
31 06:15 Calm 16.09 Fair CLR 0 0 0% 75.82 0.0
31 05:55 Calm 16.09 Fair CLR 0 0 0% 75.82 0.0
31 05:35 Calm 16.09 Fair CLR 0 0 0% 75.79 0.0
31 05:15 Calm 16.09 Fair CLR 0 0 0% 75.79 0.0
31 04:55 Calm 16.09 Fair CLR 0 0 0% 75.77 0.0
31 04:35 Calm 16.09 Fair CLR 0 0 0% 75.77 0.0
31 04:15 NW 6 16.09 Fair CLR 0 0 0% 75.77 0.0
31 03:55 Calm 16.09 Fair CLR 0 0 0% 75.74 0.0
31 03:35 Calm 16.09 Fair CLR 0 0 0% 75.72 0.0
31 03:15 Calm 16.09 Fair CLR 0 0 0% 75.72 0.0
31 02:55 Calm 16.09 Fair CLR 0 0 0% 75.72 0.0
31 02:35 SE 6 16.09 Fair CLR 0 0 0% 75.72 0.0
31 02:15 SE 6 16.09 Fair CLR 0 0 0% 75.72 0.0
31 01:55 Calm 16.09 Fair CLR 0 0 0% 75.74 0.0
31 01:35 Calm 16.09 Fair CLR 0 0 0% 75.74 0.0
31 01:15 Calm 16.09 Fair CLR 0 0 0% 75.72 0.0
31 00:55 Calm 16.09 Fair CLR 0 0 0% 75.72 0.0
31 00:35 Calm 16.09 Fair CLR 0 0 0% 75.72 0.0
31 00:15 NW 6 16.09 Fair CLR 0 0 0% 75.69 0.0
30 23:55 Calm 16.09 Fair CLR 0 0 0% 75.69 0.0
30 23:35 Calm 16.09 Fair CLR 0 0 0% 75.69 0.0
30 23:15 Calm 16.09 Fair CLR 0 0 0% 75.69 0.0
30 22:55 Calm 16.09 Fair CLR 0 0 0% 75.72 0.0
30 22:35 Calm 16.09 Fair CLR 0 0 0% 75.72 0.0
30 22:15 Calm 16.09 Fair CLR 0 0 0% 75.72 0.0
30 21:55 Calm 16.09 Fair CLR 0 0 0% 75.72 0.0
30 21:35 Calm 16.09 Fair CLR 0 0 0% 75.72 0.0
30 21:15 Calm 16.09 Fair CLR 0 0 0% 75.72 0.0
30 20:55 Calm 16.09 Fair CLR 0 0 0% 75.69 0.0
30 20:35 Calm 16.09 Fair CLR 0 0 0% 75.69 0.0
30 20:15 Calm 16.09 Fair CLR 0 0 0% 75.69 0.0
30 19:55 Calm 16.09 Fair CLR 0 0 0% 75.67 0.0
30 19:35 Calm 16.09 Fair CLR 0 0 0% 75.67 0.0
30 19:15 Calm 16.09 Fair CLR 0 0 0% 75.67 0.0
30 18:55 Calm 16.09 Fair CLR 0 0 0% 75.67 0.0
30 18:35 SW 7 16.09 Fair CLR 0 0 0% 75.67 0.0
30 18:15 SW 7 16.09 Fair CLR 0 0 0% 75.67 0.0
30 17:55 W 9 16.09 Fair CLR 0 0 0% 75.64 0.0
30 17:35 S 6 16.09 Fair CLR 0 0 0% 75.64 0.0
30 17:15 S 7 16.09 Fair CLR 0 0 0% 75.64 0.0
30 16:55 SW 13 16.09 Fair CLR 0 0 0% 75.64 0.0
30 16:35 SW 6 16.09 Fair CLR 0 0 0% 75.64 0.0
30 16:15 SW 7 16.09 Fair CLR 0 0 0% 75.64 0.0
30 15:55 S 6 16.09 Fair CLR 0 0 0% 75.67 0.0
30 15:35 SW 9 16.09 Fair CLR 0 0 0% 75.69 0.0
30 15:15 SW 7 16.09 Fair CLR 0 0 0% 75.69 0.0
30 14:55 SW 11 16.09 Fair CLR 0 0 0% 75.69 0.0
30 14:35 SW 9 16.09 Fair CLR 0 0 0% 75.72 0.0
30 14:15 S 9 16.09 Fair CLR 0 0 0% 75.72 0.0
30 13:55 S 11 16.09 Fair CLR 0 0 0% 75.69 0.0
30 13:35 SW 9 16.09 Fair CLR 0 0 0% 75.72 0.0
30 13:15 SW 11 16.09 Fair CLR 0 0 0% 75.72 0.0
30 12:55 SW 13 G 26 16.09 Fair CLR 0 0 0% 75.74 0.0
30 12:35 S 13 G 30 16.09 Fair CLR 0 0 0% 75.77 0.0
30 12:15 S 17 G 28 16.09 Fair CLR 0 0 0% 75.77 0.0
30 11:55 S 15 16.09 Fair CLR 0 0 0% 75.74 0.0
30 11:35 SW 13 G 28 16.09 Fair CLR 0 0 0% 75.74 0.0
30 11:15 S 13 16.09 Fair CLR 0 0 0% 75.74 0.0
30 10:55 S 15 16.09 Fair CLR 0 0 0% 75.74 0.0
30 10:35 S 19 16.09 Fair CLR 0 0 0% 75.74 0.0
30 10:15 SE 11 16.09 Fair CLR 0 0 0% 75.74 0.0
30 09:55 SE 13 16.09 Thunderstorm in Vicinity CLR 0 0 0% 75.74 0.0
30 09:35 Calm 16.09 Fair CLR 0 0 0% 75.74 0.0
30 09:15 SE 7 16.09 Fair CLR 0 0 0% 75.72 0.0
30 08:35 SE 7 16.09 Fair CLR 0 0 0% 75.74 0.0
30 08:15 Calm 16.09 Thunderstorm in Vicinity SCT120 0 0 0% 75.74 0.0
30 07:55 SE 6 16.09 Partly Cloudy SCT050 SCT060 SCT070 0 0 0% 75.74 0.0
30 07:15 SE 15 16.09 Thunderstorm in Vicinity SCT120 0 0 0% 75.72 0.0
30 06:55 Calm 16.09 Fair CLR 0 0 0% 75.74 0.0
30 06:35 SE 13 16.09 Fair CLR 0 0 0% 75.72 0.0
30 06:15 Calm 16.09 Fair CLR 0 0 0% 75.77 0.0
30 05:55 Calm 16.09 Partly Cloudy SCT120 0 0 0% 75.77 0.0
30 05:35 Calm 16.09 Fair CLR 0 0 0% 75.77 0.0
30 05:15 S 6 16.09 Fair CLR 0 0 0% 75.77 0.0
30 04:55 Calm 16.09 Thunderstorm in Vicinity SCT110 0 0 0% 75.79 0.0
30 04:35 Calm 16.09 Mostly Cloudy BKN110 0 0 0% 75.77 0.0
30 04:15 S 6 16.09 Fair CLR 0 0 0% 75.74 0.0
30 03:55 S 6 16.09 Fair CLR 0 0 0% 75.72 0.0
30 03:35 Calm 16.09 Fair CLR 24.9 18.4 67% 26 75.74 0.0
30 03:15 Calm 16.09 Fair CLR 0 0 0% 75.74 0.0
30 02:55 SE 6 16.09 Fair CLR 0 0 0% 75.72 0.0
30 02:35 SE 7 16.09 Fair CLR 0 0 0% 75.72 0.0
30 02:15 SE 6 16.09 Fair CLR 0 0 0% 75.72 0.0
30 01:55 SE 7 16.09 Fair CLR 0 0 0% 75.72 0.0
30 01:35 SE 7 16.09 Fair CLR 0 0 0% 75.74 0.0
30 01:15 SE 11 16.09 Fair CLR 0 0 0% 75.74 0.0
30 00:55 S 9 16.09 Fair CLR 0 0 0% 75.74 0.0
30 00:35 SE 11 16.09 Fair CLR 0 0 0% 75.74 0.0
30 00:15 S 11 16.09 Fair CLR 0 0 0% 75.72 0.0
29 23:55 S 11 16.09 Fair CLR 0 0 0% 75.72 0.0
29 23:35 S 15 16.09 Fair CLR 0 0 0% 75.72 0.0
29 23:15 S 9 16.09 Fair CLR 0 0 0% 75.72 0.0
29 22:55 S 13 16.09 Fair CLR 0 0 0% 75.72 0.0
29 22:35 S 17 16.09 Fair CLR 0 0 0% 75.72 0.0
29 22:15 S 13 16.09 Fair CLR 0 0 0% 75.69 0.0
29 21:55 S 13 16.09 Fair CLR 0 0 0% 75.69 0.0
29 21:35 S 13 16.09 Fair CLR 0 0 0% 75.69 0.0
29 21:15 S 11 16.09 Fair CLR 0 0 0% 75.67 0.0
29 20:55 SE 13 16.09 Fair CLR 0 0 0% 75.64 0.0
29 20:35 SE 9 16.09 Fair CLR 0 0 0% 75.64 0.0
29 20:15 SE 11 16.09 Fair CLR 0 0 0% 75.62 0.0
29 19:55 SE 11 16.09 Fair CLR 0 0 0% 75.64 0.0
29 19:35 SE 9 16.09 Fair CLR 0 0 0% 75.64 0.0
29 19:15 SE 13 16.09 Fair CLR 0 0 0% 75.64 0.0
29 18:55 SE 11 16.09 Fair CLR 0 0 0% 75.64 0.0
29 18:35 S 7 16.09 Fair CLR 0 0 0% 75.67 0.0
29 18:15 S 9 16.09 Fair CLR 0 0 0% 75.67 0.0
29 17:55 S 11 16.09 Fair CLR 0 0 0% 75.67 0.0
29 17:35 S 20 G 30 16.09 Fair CLR 0 0 0% 75.67 0.0
29 17:15 S 20 16.09 Fair CLR 0 0 0% 75.67 0.0
29 16:55 S 19 G 28 16.09 Fair CLR 0 0 0% 75.67 0.0
29 16:15 S 19 G 30 16.09 Fair CLR 0 0 0% 75.72 0.0
29 15:55 SE 11 16.09 Fair CLR 0 0 0% 75.72 0.0
29 15:35 S 6 16.09 Fair CLR 0 0 0% 75.77 0.0
29 15:15 SE 7 16.09 Partly Cloudy SCT060 SCT080 SCT100 0 0 0% 75.77 0.0
29 14:55 S 15 16.09 Partly Cloudy SCT110 0 0 0% 75.79 0.0
29 14:35 SE 11 16.09 Partly Cloudy SCT050 SCT080 SCT100 0 0 0% 75.82 0.0
29 14:15 SE 19 16.09 Partly Cloudy SCT080 SCT090 SCT120 0 0 0% 75.82 0.0
29 13:55 S 13 16.09 Fair CLR 0 0 0% 75.84 0.0
29 13:35 SE 17 G 26 16.09 Fair CLR 28.6 18 53% 29 75.84 0.0
29 12:55 S 11 16.09 Partly Cloudy SCT040 SCT060 0 0 0% 75.9 0.0
29 12:35 S 17 G 33 16.09 Partly Cloudy SCT060 0 0 0% 75.87 0.0
29 12:15 S 17 G 26 16.09 Fair CLR 0 0 0% 75.9 0.0
29 11:55 S 13 16.09 Fair CLR 0 0 0% 75.92 0.0
29 11:35 S 20 G 31 16.09 Fair CLR 0 0 0% 75.92 0.0
29 11:15 S 20 16.09 Fair CLR 0 0 0% 75.95 0.0
29 10:55 S 20 16.09 Fair CLR 0 0 0% 75.95 0.0
29 10:35 S 15 16.09 Fair CLR 0 0 0% 75.95 0.0
29 10:15 SE 11 16.09 Fair CLR 0 0 0% 75.97 0.0
29 09:55 S 13 16.09 Fair CLR 0 0 0% 76 0.0
29 09:35 S 11 16.09 Fair CLR 0 0 0% 76 0.0
29 09:15 S 15 16.09 Fair CLR 0 0 0% 76.02 0.0
29 08:55 S 13 16.09 Fair CLR 0 0 0% 76.02 0.0
29 08:35 SE 13 16.09 Fair CLR 0 0 0% 76.02 0.0
29 08:15 S 13 16.09 Fair CLR 0 0 0% 76.02 0.0
29 07:55 SE 11 16.09 Fair CLR 0 0 0% 76.02 0.0
29 07:35 SE 13 16.09 Fair CLR 21.3 15 67% 76.02 0.0
29 07:15 SE 13 16.09 Fair CLR 0 0 0% 76.05 0.0
29 06:55 S 13 16.09 Fair CLR 0 0 0% 76.02 0.0
29 06:35 SE 11 16.09 Partly Cloudy SCT100 0 0 0% 76.02 0.0
29 06:15 SE 7 16.09 Partly Cloudy SCT100 21.4 15 67% 76.05 0.0
29 05:55 SE 15 16.09 Fair CLR 0 0 0% 76.05 0.0
29 05:35 SE 9 16.09 Fair CLR 21.6 15.4 68% 76.07 0.0
29 05:15 S 13 16.09 Fair CLR 0 0 0% 76.12 0.0
29 04:55 S 17 16.09 Fair CLR 0 0 0% 76.1 0.0
29 04:35 SE 9 16.09 Fair CLR 0 0 0% 76.1 0.0
29 04:15 SE 15 16.09 Fair CLR 0 0 0% 76.1 0.0
29 03:55 SE 15 16.09 Fair CLR 0 0 0% 76.1 0.0
29 03:35 SE 15 16.09 Fair CLR 0 0 0% 76.12 0.0
29 03:15 SE 13 16.09 Fair CLR 0 0 0% 76.15 0.0
29 02:55 SE 13 16.09 Fair CLR 0 0 0% 76.15 0.0
29 02:35 SE 13 16.09 Fair CLR 22 16.5 71% 76.17 0.0
29 02:15 SE 15 16.09 Fair CLR 0 0 0% 76.15 0.0
29 01:55 SE 17 16.09 Fair CLR 0 0 0% 76.15 0.0
29 01:35 SE 17 G 26 16.09 Fair CLR 0 0 0% 76.17 0.0
29 01:15 SE 15 16.09 Fair CLR 0 0 0% 76.17 0.0
29 00:55 SE 11 16.09 Fair CLR 0 0 0% 76.2 0.0
29 00:35 SE 9 16.09 Fair CLR 0 0 0% 76.2 0.0
29 00:15 SE 13 16.09 Fair CLR 0 0 0% 76.2 0.0
28 23:55 SE 9 16.09 Fair CLR 0 0 0% 76.23 0.0
28 23:35 SE 9 16.09 Fair CLR 0 0 0% 76.23 0.0
28 23:15 SE 11 16.09 Fair CLR 0 0 0% 76.23 0.0
28 22:55 SE 11 16.09 Fair CLR 0 0 0% 76.23 0.0
28 22:35 SE 11 16.09 Fair CLR 0 0 0% 76.23 0.0
28 22:15 SE 11 16.09 Fair CLR 0 0 0% 76.23 0.0
28 21:35 SE 11 16.09 Fair CLR 0 0 0% 76.23 0.0
28 21:15 SE 9 16.09 Fair CLR 0 0 0% 76.23 0.0
28 20:55 SE 11 16.09 Fair CLR 0 0 0% 76.2 0.0
28 20:35 SE 11 16.09 Fair CLR 0 0 0% 76.2 0.0
28 20:15 SE 9 16.09 Fair CLR 0 0 0% 76.2 0.0
28 19:55 SE 13 16.09 Fair CLR 0 0 0% 76.2 0.0
28 19:35 SE 17 16.09 Fair CLR 0 0 0% 76.2 0.0
28 19:15 SE 20 G 26 16.09 Fair CLR 0 0 0% 76.23 0.0
28 18:55 S 15 16.09 Fair CLR 0 0 0% 76.23 0.0
28 18:35 S 19 16.09 Fair CLR 0 0 0% 76.23 0.0
28 18:15 SE 19 G 26 16.09 Fair CLR 0 0 0% 76.25 0.0
28 17:55 S 24 G 30 16.09 Fair CLR 0 0 0% 76.25 0.0
28 17:35 S 19 G 26 16.09 Fair CLR 0 0 0% 76.28 0.0
28 17:15 S 19 16.09 Fair CLR 0 0 0% 76.28 0.0
28 16:55 S 20 G 30 16.09 Fair CLR 0 0 0% 76.28 0.0
28 16:35 SE 22 G 33 16.09 Fair CLR 0 0 0% 76.3 0.0
28 16:15 S 20 16.09 Fair CLR 29.2 18.3 52% 30 76.33 0.0
28 15:55 S 20 G 28 16.09 Fair CLR 0 0 0% 76.35 0.0
28 15:35 S 17 16.09 Fair CLR 0 0 0% 76.38 0.0
28 15:15 S 19 G 30 16.09 Fair CLR 0 0 0% 76.38 0.0
28 14:55 S 17 16.09 Fair CLR 0 0 0% 76.4 0.0
28 14:35 S 20 G 30 16.09 Fair CLR 0 0 0% 76.4 0.0
28 14:15 S 19 G 31 16.09 Fair CLR 0 0 0% 76.43 0.0
28 13:55 SE 22 G 28 16.09 Fair CLR 28.1 17.5 53% 29 76.43 0.0
28 13:35 SE 22 16.09 Fair CLR 0 0 0% 76.45 0.0
28 13:15 S 17 16.09 Fair CLR 27.8 17.1 52% 28 76.48 0.0
28 12:55 S 17 16.09 Fair CLR 0 0 0% 76.5 0.0
28 12:35 S 13 16.09 Fair CLR 0 0 0% 76.53 0.0
28 12:15 S 22 16.09 Fair CLR 0 0 0% 76.53 0.0
28 11:55 S 15 G 20 16.09 Fair CLR 0 0 0% 76.56 0.0
28 11:35 S 15 16.09 Fair CLR 0 0 0% 76.56 0.0
28 11:15 S 17 16.09 Fair CLR 0 0 0% 76.58 0.0
28 10:35 S 17 16.09 Fair CLR 0 0 0% 76.56 0.0
28 10:15 S 15 16.09 Fair CLR 24.8 17.3 63% 26 76.56 0.0
28 09:55 S 13 16.09 Fair CLR 0 0 0% 76.56 0.0
28 09:35 SE 13 16.09 Fair CLR 0 0 0% 76.58 0.0
28 09:15 SE 11 16.09 Fair CLR 0 0 0% 76.58 0.0
28 08:55 SE 11 16.09 Fair CLR 22 17.4 75% 76.58 0.0
28 08:35 SE 9 16.09 Fair CLR 0 0 0% 76.58 0.0
28 08:15 SE 7 16.09 Fair CLR 0 0 0% 76.56 0.0
Date Time (cdt) Wind (kph) Vis. (km) Weather Sky Cond. Air Dwpt Max. Min. Relative Humidity Wind Chill (°C) Heat Index (°C) altimeter (cm) sea level (mb) 1 hr 3 hr 6 hr
6 hour
Temperature (ºC) Pressure Precipitation (cm)